DW9584 Weather Reports


Display with metric or nautical units.
time (UTC)temp
F
wind
direction
speed
MPH
gust
MPH
rain 1hr
in
rain 24hr
in
rain mn
in
humidity
%
barometer
mb
20260510234524 60 164 0.0 2.0 0.11 0.21 0.21 91 1015.6
20260510233022 61 333 1.0 3.0 0.01 0.11 0.11 89 1015.3
20260510231518 61 302 1.0 5.0 0.00 0.10 0.10 90 1014.7
20260510230018 62 289 1.0 8.0 0.00 0.10 0.10 92 1014.6
20260510224527 63 335 0.0 1.0 0.00 0.10 0.10 93 1013.7
20260510223009 64 335 0.0 0.0 0.00 0.10 0.10 93 1013.4
20260510221526 63 335 0.0 0.0 0.05 0.10 0.10 93 1013.3
20260510220024 63 335 0.0 2.0 0.08 0.10 0.10 92 1013.3
20260510214526 63 335 0.0 2.0 0.10 0.10 0.10 91 1013.6
20260510213023 63 335 0.0 2.0 0.10 0.10 0.10 89 1013.6
20260510211521 64 305 0.0 9.0 0.05 0.05 0.05 84 1013.8
20260510210022 69 289 0.0 2.0 0.02 0.02 0.02 77 1013.5
20260510204516 72 188 0.0 2.0 0.00 0.00 0.00 68 1012.6
20260510203035 73 188 0.0 0.0 0.00 0.00 0.00 62 1012.5
20260510201527 74 188 0.0 2.0 0.00 0.00 0.00 62 1012.8
20260510200028 74 229 0.0 2.0 0.00 0.00 0.00 59 1012.7
20260510194529 73 224 0.0 3.0 0.00 0.00 0.00 61 1013.0
20260510193026 73 208 0.0 2.0 0.00 0.00 0.00 64 1013.0
20260510191524 72 217 0.0 3.0 0.00 0.00 0.00 66 1013.2
20260510190021 73 248 0.0 4.0 0.00 0.00 0.00 58 1013.3
20260510184520 74 316 1.0 5.0 0.00 0.00 0.00 53 1013.1
20260510183037 76 312 1.0 6.0 0.00 0.00 0.00 52 1013.1
20260510181504 76 341 0.0 7.0 0.00 0.00 0.00 50 1013.0
20260510180006 76 344 1.0 6.0 0.00 0.00 0.00 52 1013.0
20260510174504 77 282 3.0 7.0 0.00 0.00 0.00 48 1013.0
20260510173007 77 192 0.0 4.0 0.00 0.00 0.00 51 1013.1
20260510171506 76 214 2.0 5.0 0.00 0.00 0.00 52 1013.0
20260510170005 77 191 1.0 5.0 0.00 0.00 0.00 49 1013.0
20260510164508 76 218 0.0 2.0 0.00 0.00 0.00 53 1013.0
20260510163011 75 217 0.0 4.0 0.00 0.00 0.00 52 1013.2
20260510161507 75 200 1.0 3.0 0.00 0.00 0.00 58 1013.2
20260510160007 74 209 0.0 3.0 0.00 0.00 0.00 56 1013.1
20260510154510 74 243 0.0 4.0 0.00 0.00 0.00 55 1013.1
20260510153021 72 203 0.0 3.0 0.00 0.00 0.00 60 1013.2
20260510151510 71 283 0.0 5.0 0.00 0.00 0.00 60 1013.2
20260510150010 70 240 0.0 4.0 0.00 0.00 0.00 65 1013.1
20260510144512 68 212 1.0 5.0 0.00 0.00 0.00 67 1013.4
20260510143013 67 204 1.0 4.0 0.00 0.00 0.00 70 1013.5
20260510141515 64 299 0.0 2.0 0.00 0.00 0.00 77 1013.4
20260510140014 63 118 0.0 3.0 0.00 0.00 0.00 80 1013.5
20260510134516 62 192 1.0 2.0 0.00 0.00 0.00 81 1013.3
20260510133015 60 123 0.0 2.0 0.00 0.00 0.00 83 1013.3
20260510131515 59 130 0.0 3.0 0.00 0.00 0.00 85 1013.4
20260510130027 58 231 0.0 2.0 0.00 0.00 0.00 88 1013.4
20260510124517 56 352 0.0 2.0 0.00 0.00 0.00 90 1013.3
20260510123017 56 352 0.0 2.0 0.00 0.00 0.00 91 1013.3
20260510121515 55 352 0.0 2.0 0.00 0.00 0.00 94 1013.1
20260510120019 54 352 0.0 2.0 0.00 0.00 0.00 95 1013.0
20260510114517 53 352 0.0 2.0 0.00 0.00 0.00 95 1012.9
20260510113028 52 352 0.0 0.0 0.00 0.00 0.00 95 1012.7
20260510111530 52 352 0.0 0.0 0.00 0.00 0.00 95 1012.6
20260510110018 52 352 0.0 0.0 0.00 0.00 0.00 95 1012.3
20260510104527 51 352 0.0 2.0 0.00 0.00 0.00 95 1012.1
20260510103024 51 352 0.0 1.0 0.00 0.00 0.00 95 1011.9
20260510101522 50 352 0.0 2.0 0.00 0.00 0.00 95 1012.0
20260510100021 50 352 0.0 0.0 0.00 0.00 0.00 95 1011.9
20260510094524 50 352 0.0 2.0 0.00 0.00 0.00 95 1011.7
20260510093023 50 300 0.0 2.0 0.00 0.00 0.00 95 1011.8
20260510091527 49 249 0.0 3.0 0.00 0.00 0.00 95 1011.5
20260510090008 49 200 0.0 2.0 0.00 0.00 0.00 95 1011.6
20260510084508 48 229 0.0 2.0 0.00 0.00 0.00 95 1011.7
20260510083004 48 1 0.0 0.0 0.00 0.00 0.00 95 1011.2
20260510081533 48 1 0.0 0.0 0.00 0.00 0.00 95 1011.1
20260510080024 48 1 0.0 0.0 0.00 0.00 0.00 95 1011.2
20260510074519 48 1 0.0 0.0 0.00 0.00 0.00 95 1011.1
20260510073025 48 1 0.0 0.0 0.00 0.00 0.00 95 1011.0
20260510071516 48 1 0.0 0.0 0.00 0.00 0.00 95 1010.8
20260510070021 48 1 0.0 0.0 0.00 0.00 0.00 95 1010.4
20260510064536 48 1 0.0 0.0 0.00 0.00 0.00 94 1010.6
20260510063038 48 1 0.0 0.0 0.00 0.00 0.00 94 1010.7
20260510061507 48 1 0.0 0.0 0.00 0.00 0.00 94 1010.8
20260510060006 49 1 0.0 0.0 0.00 0.00 0.00 94 1010.7
20260510054524 49 1 0.0 0.0 0.00 0.00 0.00 94 1011.0
20260510053019 49 1 0.0 0.0 0.00 0.00 0.00 94 1011.0
20260510051518 49 1 0.0 0.0 0.00 0.00 0.00 94 1011.2
20260510050014 49 1 0.0 0.0 0.00 0.00 0.00 94 1011.3
20260510044511 50 1 0.0 0.0 0.00 0.00 0.00 94 1011.3
20260510043012 50 1 0.0 0.0 0.00 0.00 0.00 94 1011.3
20260510041506 50 1 0.0 0.0 0.00 0.00 0.00 94 1011.4
20260510040027 50 1 0.0 0.0 0.00 0.00 0.00 94 1011.5
20260510034525 51 1 0.0 0.0 0.00 0.00 0.00 93 1011.4
20260510033024 51 1 0.0 0.0 0.00 0.00 0.00 93 1011.1
20260510031518 51 1 0.0 0.0 0.00 0.00 0.00 93 1011.0
20260510030015 51 1 0.0 0.0 0.00 0.00 0.00 93 1010.9
20260510024516 52 1 0.0 0.0 0.00 0.00 0.00 92 1010.8
20260510023013 52 1 0.0 0.0 0.00 0.00 0.00 92 1011.0
20260510021527 52 1 0.0 0.0 0.00 0.00 0.00 92 1010.9
20260510020028 53 1 0.0 0.0 0.00 0.00 0.00 91 1010.9
20260510014529 53 1 0.0 0.0 0.00 0.00 0.00 91 1010.7
20260510013025 53 1 0.0 0.0 0.00 0.00 0.00 90 1010.5
20260510011525 54 1 0.0 0.0 0.00 0.00 0.00 90 1010.5
20260510010021 54 1 0.0 0.0 0.00 0.00 0.00 89 1010.5
20260510004515 55 1 0.0 0.0 0.00 0.00 0.00 88 1010.3
20260510003043 55 1 0.0 0.0 0.00 0.00 0.00 87 1010.3
20260510001528 56 1 0.0 0.0 0.00 0.00 0.00 85 1010.3
20260510000030 56 1 0.0 0.0 0.00 0.00 0.00 84 1010.3